User: anonymous   Login
Location: Unspecified
(0.0000°N, 0.0000°E)
Time: 06:28:44
(UTC+00:00)
Language:

OAO 1 - Orbit

View from above orbital plane
View from above orbital plane
View from above satellite
View from above satellite

Ground track
Ground track

The orbit data is extracted from the following two-line orbital elements,

1  2142U 66031A   18321.44678616 -.00000016  00000-0  10991-5 0  9995
2  2142  35.0468 331.8688 0007238 204.1958 155.8390 14.33881745753834
Epoch (UTC): 17 November 2018 10:43:22
Eccentricity: 0.0007238
inclination: 35.0468°
perigee height: 773 km
apogee height: 784 km
right ascension of ascending node: 331.8688°
argument of perigee: 204.1958°
revolutions per day: 14.33881745
mean anomaly at epoch: 155.8390°
orbit number at epoch: 75383

The dashed part of the orbit path shows where the satellite is in the earth's shadow,  

DLR